Location: Rochester
(43.1610°N, 77.6109°W)
Time: 02:48:24
(UTC-04:00)

O/OREOS (USA 219) - Visible Passes

Search period start: 26 October 2021 00:00
Search period end: 05 November 2021 00:00
Orbit: 621 x 646 km, 72.0° (Epoch: 22 May)

Date Brightness Start Highest point End Pass type
(mag) Time Alt. Az. Time Alt. Az. Time Alt. Az.
26 Oct ? 05:49:38 10° N 05:53:46 35° ENE 05:57:55 10° SE visible
27 Oct ? 04:35:07 10° NE 04:35:43 10° NE 04:36:19 10° NE visible
27 Oct ? 06:11:25 10° NNW 06:15:57 75° ENE 06:20:28 10° SSE visible
27 Oct ? 20:24:30 10° SSW 20:26:18 24° SSW 20:26:18 24° SSW visible
28 Oct ? 04:55:09 11° N 04:58:16 20° NE 05:01:34 10° E visible
28 Oct ? 06:33:35 10° NW 06:37:56 48° WSW 06:42:17 10° S visible
28 Oct ? 19:09:18 10° SE 19:11:53 16° ESE 19:11:53 16° ESE visible
28 Oct ? 20:46:42 10° SW 20:49:25 33° WSW 20:49:25 33° WSW visible
29 Oct ? 05:17:59 20° N 05:20:37 38° ENE 05:24:50 10° SE visible
29 Oct ? 06:56:18 10° NW 06:59:46 22° WSW 07:03:14 10° SSW visible
29 Oct ? 19:29:45 10° S 19:33:49 36° ESE 19:34:51 31° ENE visible
29 Oct ? 21:09:39 10° WSW 21:12:23 23° WNW 21:12:23 23° WNW visible
30 Oct ? 04:03:28 11° ENE 04:03:28 11° ENE 04:04:02 10° ENE visible
30 Oct ? 05:41:00 37° NNW 05:42:45 84° ENE 05:47:17 10° SSE visible
30 Oct ? 19:51:18 10° SSW 19:55:46 82° ESE 19:57:40 34° NNE visible
30 Oct ? 21:33:45 10° WNW 21:35:11 13° WNW 21:35:11 13° WNW visible
31 Oct ? 04:26:37 18° E 04:26:37 18° E 04:28:37 10° ESE visible
31 Oct ? 06:04:09 41° W 06:04:43 43° WSW 06:09:00 10° S visible
31 Oct ? 18:35:46 10° SE 18:38:49 18° E 18:41:53 10° ENE visible
31 Oct ? 20:13:35 10° SW 20:17:52 45° WNW 20:20:18 23° N visible
01 Nov ? 04:49:51 23° ESE 04:49:51 23° ESE 04:51:45 10° SE visible
01 Nov ? 06:27:24 19° WSW 06:27:24 19° WSW 06:29:47 10° SSW visible
01 Nov ? 18:56:27 10° S 19:00:36 40° ESE 19:04:47 10° NE visible
01 Nov ? 20:36:39 10° WSW 20:40:10 22° NW 20:42:45 14° NNW visible
02 Nov ? 05:13:07 16° SSE 05:13:07 16° SSE 05:14:06 10° SSE visible
02 Nov ? 19:18:05 10° SSW 19:22:33 89° WNW 19:27:03 10° NNE visible
02 Nov ? 21:01:03 10° WNW 21:02:40 12° NW 21:04:17 10° NNW visible
03 Nov ? 19:40:29 10° SW 19:44:41 40° WNW 19:48:56 10° N visible
04 Nov ? 18:23:08 10° S 18:27:23 45° ESE 18:31:39 10° NE visible
04 Nov ? 20:03:40 10° WSW 20:07:01 20° NW 20:10:23 10° N visible
